Find Xingwang Jishu Shiyan W.

NORAD ID: 57289 Int'l Des: 2023-095 Owner: ZXW Country: CN Constellation: xingwang operational
LEOCIRCULARPOLARONEWEB_TYPE

リアルタイム位置

3D地球を読み込み中...

Xingwang Jishu Shiyan W.について

説明を読み込み中...

次回通過

Passes for default location (London). Set your location on the main map for personalized predictions.

高度履歴

Loading altitude history...

軌道要素

1 57289U 23095B 26132.61875458 .00000044 00000-0 53165-4 0 9990
2 57289 86.5061 17.0941 0014698 291.1014 68.8557 13.39548589138991
Epoch: May 12, 2026 • Age: 4 hours

現在のステータス

高度 1121.4 km
速度 7.29 km/s
衛星直下点 42.60°N, 130.01°W
打ち上げ日 Jul 9, 2023
運用期間 2.8 years
タイプ internet

技術仕様

分類 Payload
質量 300.00 kg
乾燥質量 300.00 kg
総質量 300.00 kg
長さ 2.50 m
直径 0.80 m
スパン 2.50 m
形状 Box + 2 Pan
製造者 CAST
フェーズステータス In Orbit
所有者/国 ZXW/CN

Most Searched